Frederick, MD

10:19 AM EST on February 11, 2016 (GMT -0500)
Frederick Municipal

Weather History for KFDK - October, 2011

Change the Weather History Date:

Wednesday, October 19, 2011

  Actual Average (KHGR) Record (KHGR)
Temperature  
Mean Temperature 58 °F 54 °F  
Max Temperature 64 °F 64 °F - ()
Min Temperature 53 °F 43 °F - ()
Degree Days  
Heating Degree Days 6 11  
Month to date heating degree days 168  
Since 1 July heating degree days 242  
Cooling Degree Days 0 0  
Month to date cooling degree days 9  
Year to date cooling degree days 968  
Growing Degree Days 8 (Base 50)    
Moisture  
Dew Point 54 °F    
Average Humidity 87    
Maximum Humidity 100    
Minimum Humidity 77    
Precipitation  
Precipitation 0.15 in 0.09 in - ()
Month to date precipitation 1.95  
Year to date precipitation 32.25  
Sea Level Pressure  
Sea Level Pressure 29.61 in    
Wind  
Wind Speed 7 mph (NNE)    
Max Wind Speed 14 mph    
Max Gust Speed 22 mph    
Visibility 8 miles    
Events Rain    
T = Trace of Precipitation, MM = Missing Value Source: NWS Daily Summary

Daily Weather History Graph

Daily Weather History Graph

Search for Another Location

Airport or City:

Trip Planner

Search our weather history database for the weather conditions in past years. The results will help you decide how hot, cold, wet, or windy it might be!

Date:

Astronomy

Oct. 19, 2011 Rise Set
Actual Time 7:23 AM EDT 6:25 PM EDT
Civil Twilight 6:56 AM EDT 6:52 PM EDT
Nautical Twilight 6:24 AM EDT 7:23 PM EDT
Astronomical Twilight 5:53 AM EDT 7:54 PM EDT
Moon No Moon Rise 1:52 PM EDT (10/19)
Length of Visible Light 11h 56m
Length of Day
11h 01m
Waning Gibbous, 55% of the Moon is Illuminated
Oct 19
Waning Gibbous
Oct 19
Last Quarter
Oct 26
New
Nov 2
First Quarter
Nov 10
Full

Hourly Weather History & Observations

Time (EDT) Temp. Dew Point Humidity Pressure Visibility Wind Dir Wind Speed Gust Speed Precip Events Conditions
12:07 AM 55.4 °F 48.2 °F 77% 29.80 in 10.0 mi NE 6.9 mph - N/A   Scattered Clouds
12:26 AM 55.4 °F 48.2 °F 77% 29.77 in 10.0 mi NNE 8.1 mph - N/A   Scattered Clouds
12:45 AM 55.4 °F 48.2 °F 77% 29.77 in 10.0 mi NNE 6.9 mph - N/A   Scattered Clouds
1:05 AM 55.4 °F 48.2 °F 77% 29.78 in 10.0 mi NNE 5.8 mph - N/A   Mostly Cloudy
1:24 AM 55.4 °F 48.2 °F 77% 29.76 in 10.0 mi NNE 8.1 mph - N/A Rain Light Rain
1:43 AM 55.4 °F 48.2 °F 77% 29.75 in 10.0 mi NNE 4.6 mph - N/A   Light Drizzle
2:03 AM 55.4 °F 48.2 °F 77% 29.73 in 10.0 mi North 5.8 mph - N/A   Scattered Clouds
2:22 AM 55.4 °F 48.2 °F 77% 29.73 in 10.0 mi NNE 6.9 mph - N/A   Scattered Clouds
2:41 AM 55.4 °F 48.2 °F 77% 29.74 in 10.0 mi ENE 3.5 mph - N/A   Scattered Clouds
3:01 AM 55.4 °F 48.2 °F 77% 29.75 in 10.0 mi North 3.5 mph - N/A   Mostly Cloudy
3:20 AM 55.4 °F 48.2 °F 77% 29.73 in 10.0 mi NNE 5.8 mph - N/A Rain Light Rain
3:39 AM 53.6 °F 48.2 °F 82% 29.73 in 10.0 mi NNE 3.5 mph - N/A Rain Light Rain
3:40 AM 53.6 °F 48.2 °F 82% 29.73 in 10.0 mi NNE 4.6 mph - N/A Rain Light Rain
3:59 AM 53.6 °F 48.2 °F 82% 29.71 in 10.0 mi North 5.8 mph - N/A Rain Light Rain
4:18 AM 53.6 °F 48.2 °F 82% 29.70 in 10.0 mi NE 3.5 mph - 0.02 in Rain Light Rain
4:38 AM 53.6 °F 50.0 °F 88% 29.68 in 10.0 mi North 9.2 mph - 0.03 in Rain Light Rain
4:57 AM 53.6 °F 50.0 °F 88% 29.67 in 10.0 mi NNE 5.8 mph - N/A Rain Light Rain
5:16 AM 53.6 °F 50.0 °F 88% 29.68 in 10.0 mi NNE 6.9 mph - N/A Rain Light Rain
5:36 AM 53.6 °F 51.8 °F 94% 29.67 in 10.0 mi North 5.8 mph - N/A   Overcast
5:55 AM 53.6 °F 51.8 °F 94% 29.68 in 10.0 mi NNE 4.6 mph - N/A Rain Light Rain
6:14 AM 53.6 °F 51.8 °F 94% 29.68 in 7.0 mi NE 5.8 mph - 0.02 in Rain Rain
6:34 AM 53.6 °F 51.8 °F 94% 29.68 in 7.0 mi NNW 5.8 mph - 0.06 in Rain Rain
6:53 AM 53.6 °F 51.8 °F 94% 29.67 in 7.0 mi North 5.8 mph - 0.01 in Rain Rain
7:12 AM 53.6 °F 51.8 °F 94% 29.67 in 7.0 mi NNE 3.5 mph - 0.03 in Rain Rain
7:31 AM 53.6 °F 51.8 °F 94% 29.67 in 5.0 mi NNE 4.6 mph - 0.05 in Rain Rain
7:51 AM 53.6 °F 51.8 °F 94% 29.66 in 4.0 mi NNE 4.6 mph - N/A Rain Light Rain
8:10 AM 53.6 °F 51.8 °F 94% 29.65 in 4.0 mi NNE 8.1 mph - 0.01 in Rain Light Rain
8:29 AM 53.6 °F 53.6 °F 100% 29.64 in 3.0 mi North 10.4 mph - 0.01 in Rain Light Rain
8:49 AM 55.4 °F 53.6 °F 94% 29.63 in 4.0 mi North 8.1 mph - N/A Rain Light Rain
9:08 AM 57.2 °F 55.4 °F 94% 29.62 in 4.0 mi NNE 6.9 mph - N/A   Scattered Clouds
9:27 AM 59.0 °F 57.2 °F 94% 29.61 in 5.0 mi North 10.4 mph - N/A   Scattered Clouds
9:46 AM 59.0 °F 55.4 °F 88% 29.60 in 7.0 mi North 6.9 mph - N/A   Mostly Cloudy
10:06 AM 59.0 °F 55.4 °F 88% 29.60 in 7.0 mi NNE 6.9 mph - N/A   Mostly Cloudy
10:25 AM 59.0 °F 57.2 °F 94% 29.60 in 7.0 mi NNE 10.4 mph - N/A Rain Light Rain
10:44 AM 60.8 °F 57.2 °F 88% 29.60 in 7.0 mi NNE 8.1 mph - N/A   Mostly Cloudy
11:04 AM 60.8 °F 57.2 °F 88% 29.60 in 7.0 mi NE 8.1 mph - N/A   Overcast
11:23 AM 60.8 °F 57.2 °F 88% 29.58 in 7.0 mi NNE 5.8 mph - N/A   Overcast
11:42 AM 60.8 °F 57.2 °F 88% 29.57 in 10.0 mi NE 11.5 mph - N/A Rain Light Rain
12:01 PM 62.6 °F 57.2 °F 82% 29.54 in 10.0 mi NE 9.2 mph - N/A   Overcast
12:21 PM 64.4 °F 57.2 °F 77% 29.54 in 10.0 mi NE 13.8 mph - N/A   Mostly Cloudy
12:40 PM 62.6 °F 57.2 °F 82% 29.52 in 10.0 mi NE 9.2 mph 21.9 mph N/A   Overcast
12:59 PM 62.6 °F 57.2 °F 82% 29.50 in 10.0 mi NE 10.4 mph - N/A   Overcast
1:19 PM 62.6 °F 57.2 °F 82% 29.48 in 10.0 mi NE 10.4 mph - N/A   Overcast
1:38 PM 62.6 °F 59.0 °F 88% 29.48 in 10.0 mi NE 8.1 mph - N/A   Overcast
1:57 PM 62.6 °F 59.0 °F 88% 29.46 in 10.0 mi NE 10.4 mph - N/A Rain Light Rain
2:17 PM 62.6 °F 59.0 °F 88% 29.45 in 10.0 mi NE 8.1 mph 16.1 mph N/A   Overcast
2:36 PM 62.6 °F 59.0 °F 88% 29.42 in 10.0 mi NE 10.4 mph 16.1 mph N/A   Overcast
2:55 PM 62.6 °F 59.0 °F 88% 29.42 in 10.0 mi NE 9.2 mph - N/A   Light Drizzle
3:15 PM 62.6 °F 59.0 °F 88% 29.41 in 10.0 mi ENE 9.2 mph 18.4 mph N/A   Overcast
3:34 PM 62.6 °F 60.8 °F 94% 29.41 in 5.0 mi NE 5.8 mph - N/A   Overcast
3:53 PM 62.6 °F 60.8 °F 94% 29.40 in 4.0 mi NNE 5.8 mph - N/A   Overcast
4:12 PM 62.6 °F 60.8 °F 94% 29.39 in 4.0 mi NE 5.8 mph - N/A   Overcast
4:32 PM 62.6 °F 60.8 °F 94% 29.39 in 3.0 mi NNE 4.6 mph - N/A   Overcast
4:51 PM 62.6 °F 60.8 °F 94% 29.38 in 1.8 mi North 5.8 mph - N/A Rain Light Rain
5:10 PM 62.6 °F 60.8 °F 94% 29.37 in 2.5 mi North 6.9 mph - N/A   Overcast
5:30 PM 60.8 °F 60.8 °F 100% 29.36 in 2.0 mi North 6.9 mph - N/A   Overcast
5:49 PM 60.8 °F 60.8 °F 100% 29.35 in 2.5 mi NNE 8.1 mph - N/A   Overcast
6:08 PM 60.8 °F 60.8 °F 100% 29.34 in 7.0 mi North 6.9 mph - N/A Rain Light Rain
6:28 PM 60.8 °F 60.8 °F 100% 29.32 in 4.0 mi NNW 8.1 mph - 0.03 in Rain Rain
6:47 PM 60.8 °F 60.8 °F 100% 29.32 in 2.5 mi NNE 8.1 mph - 0.07 in Rain Heavy Rain
7:06 PM 60.8 °F 60.8 °F 100% 29.31 in 4.0 mi NNW 8.1 mph - 0.38 in Rain , Thunderstorm Heavy Thunderstorms and Rain
7:25 PM 60.8 °F 60.8 °F 100% 29.31 in 1.8 mi North 9.2 mph - 0.59 in Rain , Thunderstorm Heavy Thunderstorms and Rain
7:45 PM 62.6 °F 60.8 °F 94% 29.31 in 5.0 mi North 4.6 mph - N/A Rain Rain
8:04 PM 62.6 °F 60.8 °F 94% 29.32 in 3.0 mi WNW 6.9 mph - 0.03 in Rain Rain
8:23 PM 62.6 °F 60.8 °F 94% 29.31 in 5.0 mi North 5.8 mph - 0.11 in Rain Rain
8:43 PM 62.6 °F 60.8 °F 94% 29.30 in 5.0 mi NNE 8.1 mph - 0.14 in Rain Light Rain
9:02 PM 62.6 °F 60.8 °F 94% 29.29 in 7.0 mi NNE 8.1 mph - N/A   Light Drizzle
9:21 PM 62.6 °F 60.8 °F 94% 29.29 in 10.0 mi NNE 6.9 mph - 0.01 in Rain Light Rain
9:41 PM 62.6 °F 60.8 °F 94% 29.28 in 10.0 mi NNE 5.8 mph - 0.01 in   Overcast
10:00 PM 60.8 °F 60.8 °F 100% 29.29 in 4.0 mi North 4.6 mph - N/A Rain Light Rain
10:19 PM 60.8 °F 60.8 °F 100% 29.28 in 4.0 mi Calm Calm - 0.01 in Rain Light Rain
10:38 PM 60.8 °F 60.8 °F 100% 29.28 in 2.5 mi North 4.6 mph - 0.03 in Rain Rain
10:58 PM 60.8 °F 60.8 °F 100% 29.27 in 3.0 mi North 4.6 mph - N/A Rain Light Rain
11:17 PM 60.8 °F 60.8 °F 100% 29.28 in 4.0 mi Calm Calm - N/A   Overcast
11:37 PM 60.8 °F 60.8 °F 100% 29.28 in 2.5 mi Calm Calm - 0.01 in Rain Rain
11:56 PM 60.8 °F 60.8 °F 100% 29.27 in 1.8 mi Calm Calm - 0.01 in Rain Rain